| time (UTC) | temp F | wind direction | speed MPH | gust MPH | rain 1hr in | rain 24hr in | rain mn in | humidity % | barometer mb |
| 20260508054249 | 45 | 245 | 0.0 | 0.0 | 0.00 | 0.00 | 0.00 | 96 | 1014.2 |
| 20260508053745 | 45 | 245 | 0.0 | 0.0 | 0.00 | 0.00 | 0.00 | 96 | 1014.3 |
| 20260508053243 | 45 | 244 | 0.0 | 0.0 | 0.00 | 0.00 | 0.00 | 96 | 1014.2 |
| 20260508052740 | 45 | 244 | 0.0 | 0.0 | 0.00 | 0.00 | 0.00 | 96 | 1014.3 |
| 20260508052237 | 45 | 245 | 0.0 | 0.0 | 0.00 | 0.00 | 0.00 | 96 | 1014.5 |
| 20260508051733 | 46 | 245 | 0.0 | 0.0 | 0.00 | 0.00 | 0.00 | 96 | 1014.3 |
| 20260508051228 | 45 | 245 | 0.0 | 0.0 | 0.00 | 0.00 | 0.00 | 96 | 1014.4 |
| 20260508050725 | 45 | 244 | 0.0 | 0.0 | 0.00 | 0.00 | 0.00 | 96 | 1014.2 |
| 20260508050223 | 46 | 244 | 0.0 | 0.0 | 0.00 | 0.00 | 0.00 | 96 | 1014.6 |
| 20260508045718 | 46 | 244 | 0.0 | 0.0 | 0.00 | 0.00 | 0.00 | 96 | 1014.4 |
| 20260508045216 | 46 | 244 | 0.0 | 0.0 | 0.00 | 0.00 | 0.00 | 96 | 1014.5 |
| 20260508044713 | 46 | 244 | 0.0 | 0.0 | 0.00 | 0.00 | 0.00 | 95 | 1014.6 |
| 20260508044210 | 46 | 245 | 0.0 | 0.0 | 0.00 | 0.00 | 0.00 | 95 | 1014.8 |
| 20260508043705 | 46 | 245 | 0.0 | 0.0 | 0.00 | 0.00 | 0.00 | 95 | 1014.7 |
| 20260508043204 | 46 | 245 | 0.0 | 0.0 | 0.00 | 0.00 | 0.00 | 95 | 1014.7 |
| 20260508042700 | 46 | 244 | 0.0 | 0.0 | 0.00 | 0.00 | 0.00 | 95 | 1014.8 |
| 20260508042157 | 46 | 244 | 0.0 | 0.0 | 0.00 | 0.00 | 0.00 | 94 | 1014.8 |
| 20260508041653 | 46 | 244 | 0.0 | 0.0 | 0.00 | 0.00 | 0.00 | 94 | 1014.9 |
| 20260508041151 | 47 | 244 | 0.0 | 0.0 | 0.00 | 0.00 | 0.00 | 94 | 1015.0 |
| 20260508040647 | 47 | 245 | 0.0 | 0.0 | 0.00 | 0.00 | 0.00 | 94 | 1014.9 |
| 20260508040144 | 47 | 244 | 0.0 | 1.0 | 0.00 | 0.00 | 0.00 | 94 | 1014.9 |
| 20260508035641 | 47 | 244 | 0.0 | 0.0 | 0.00 | 0.00 | 0.00 | 94 | 1014.7 |
| 20260508035139 | 48 | 244 | 0.0 | 0.0 | 0.00 | 0.00 | 0.00 | 94 | 1014.8 |
| 20260508034636 | 48 | 244 | 0.0 | 0.0 | 0.00 | 0.00 | 0.00 | 93 | 1014.9 |
| 20260508034133 | 48 | 244 | 0.0 | 0.0 | 0.00 | 0.00 | 0.00 | 93 | 1014.9 |
| 20260508033630 | 48 | 244 | 0.0 | 0.0 | 0.00 | 0.00 | 0.00 | 93 | 1014.9 |
| 20260508033128 | 48 | 244 | 0.0 | 0.0 | 0.00 | 0.00 | 0.00 | 92 | 1014.9 |
| 20260508032624 | 48 | 244 | 0.0 | 0.0 | 0.00 | 0.00 | 0.00 | 92 | 1015.0 |
| 20260508032122 | 48 | 244 | 0.0 | 0.0 | 0.00 | 0.00 | 0.00 | 92 | 1015.0 |
| 20260508031619 | 48 | 244 | 0.0 | 0.0 | 0.00 | 0.00 | 0.00 | 91 | 1015.1 |
| 20260508031115 | 49 | 243 | 0.0 | 0.0 | 0.00 | 0.00 | 0.00 | 91 | 1015.1 |
| 20260508030611 | 49 | 244 | 0.0 | 0.0 | 0.00 | 0.00 | 0.00 | 90 | 1015.0 |
| 20260508030110 | 49 | 244 | 0.0 | 0.0 | 0.00 | 0.00 | 0.00 | 90 | 1015.1 |
| 20260508025605 | 49 | 244 | 0.0 | 0.0 | 0.00 | 0.00 | 0.00 | 89 | 1015.0 |
| 20260508025103 | 49 | 244 | 0.0 | 0.0 | 0.00 | 0.00 | 0.00 | 88 | 1014.9 |
| 20260508024558 | 50 | 244 | 0.0 | 0.0 | 0.00 | 0.00 | 0.00 | 88 | 1015.1 |
| 20260508024056 | 50 | 244 | 0.0 | 0.0 | 0.00 | 0.00 | 0.00 | 87 | 1015.0 |
| 20260508023552 | 50 | 244 | 0.0 | 0.0 | 0.00 | 0.00 | 0.00 | 86 | 1015.0 |
| 20260508023050 | 51 | 244 | 0.0 | 0.0 | 0.00 | 0.00 | 0.00 | 86 | 1015.0 |
| 20260508022545 | 51 | 243 | 0.0 | 0.0 | 0.00 | 0.00 | 0.00 | 86 | 1014.9 |
| 20260508022043 | 51 | 244 | 0.0 | 0.0 | 0.00 | 0.00 | 0.00 | 85 | 1014.8 |
| 20260508021538 | 52 | 244 | 0.0 | 0.0 | 0.00 | 0.00 | 0.00 | 83 | 1014.8 |
| 20260508021034 | 52 | 244 | 0.0 | 0.0 | 0.00 | 0.00 | 0.00 | 83 | 1014.6 |
| 20260508020532 | 52 | 244 | 0.0 | 0.0 | 0.00 | 0.00 | 0.00 | 83 | 1014.6 |
| 20260508020030 | 53 | 244 | 0.0 | 0.0 | 0.00 | 0.00 | 0.00 | 82 | 1014.6 |
| 20260508015527 | 53 | 244 | 0.0 | 0.0 | 0.00 | 0.00 | 0.00 | 80 | 1014.5 |
| 20260508015024 | 54 | 244 | 0.0 | 0.0 | 0.00 | 0.00 | 0.00 | 79 | 1014.2 |
| 20260508014520 | 53 | 244 | 0.0 | 0.0 | 0.00 | 0.00 | 0.00 | 78 | 1014.1 |
| 20260508014016 | 54 | 243 | 0.0 | 0.0 | 0.00 | 0.00 | 0.00 | 78 | 1014.0 |
| 20260508013512 | 55 | 243 | 0.0 | 0.0 | 0.00 | 0.00 | 0.00 | 76 | 1013.9 |
| 20260508013010 | 55 | 244 | 0.0 | 0.0 | 0.00 | 0.00 | 0.00 | 74 | 1014.0 |
| 20260508012507 | 56 | 243 | 0.0 | 0.0 | 0.00 | 0.00 | 0.00 | 72 | 1013.9 |
| 20260508012004 | 57 | 243 | 0.0 | 0.0 | 0.00 | 0.00 | 0.00 | 71 | 1013.8 |
| 20260508011503 | 58 | 243 | 0.0 | 0.0 | 0.00 | 0.00 | 0.00 | 69 | 1013.8 |
| 20260508010959 | 59 | 244 | 0.0 | 0.0 | 0.00 | 0.00 | 0.00 | 63 | 1013.8 |
| 20260508010456 | 59 | 243 | 0.0 | 0.0 | 0.00 | 0.00 | 0.00 | 64 | 1013.7 |
| 20260508005954 | 60 | 243 | 0.0 | 0.0 | 0.00 | 0.00 | 0.00 | 62 | 1013.8 |
| 20260508005450 | 62 | 243 | 0.0 | 0.0 | 0.00 | 0.00 | 0.00 | 56 | 1013.8 |
| 20260508004947 | 62 | 244 | 0.0 | 0.0 | 0.00 | 0.00 | 0.00 | 55 | 1013.8 |
| 20260508004443 | 63 | 246 | 0.0 | 0.0 | 0.00 | 0.00 | 0.00 | 54 | 1013.9 |
| 20260508003940 | 64 | 216 | 1.0 | 1.0 | 0.00 | 0.00 | 0.00 | 53 | 1013.7 |
| 20260508003436 | 64 | 211 | 4.0 | 4.0 | 0.00 | 0.00 | 0.00 | 49 | 1013.7 |
| 20260508002934 | 64 | 230 | 0.0 | 1.0 | 0.00 | 0.00 | 0.00 | 50 | 1013.6 |
| 20260508002430 | 64 | 190 | 0.0 | 1.0 | 0.00 | 0.00 | 0.00 | 51 | 1013.7 |
| 20260508001926 | 64 | 193 | 3.0 | 4.0 | 0.00 | 0.00 | 0.00 | 49 | 1013.7 |
| 20260508001423 | 65 | 212 | 1.0 | 1.0 | 0.00 | 0.00 | 0.00 | 49 | 1013.8 |
| 20260508000919 | 65 | 221 | 2.0 | 3.0 | 0.00 | 0.00 | 0.00 | 47 | 1013.7 |
| 20260508000415 | 66 | 208 | 2.0 | 3.0 | 0.00 | 0.00 | 0.00 | 47 | 1013.7 |
| 20260507235912 | 66 | 300 | 2.0 | 3.0 | 0.00 | 0.00 | 0.00 | 45 | 1013.9 |
| 20260507235409 | 68 | 181 | 2.0 | 3.0 | 0.00 | 0.00 | 0.00 | 44 | 1013.9 |
| 20260507234906 | 68 | 268 | 0.0 | 1.0 | 0.00 | 0.00 | 0.00 | 43 | 1014.0 |
| 20260507234403 | 68 | 281 | 0.0 | 0.0 | 0.00 | 0.00 | 0.00 | 45 | 1013.9 |
| 20260507233859 | 69 | 194 | 4.0 | 5.0 | 0.00 | 0.00 | 0.00 | 42 | 1014.0 |
| 20260507233356 | 69 | 270 | 0.0 | 0.0 | 0.00 | 0.00 | 0.00 | 46 | 1014.0 |
| 20260507232855 | 70 | 214 | 2.0 | 3.0 | 0.00 | 0.00 | 0.00 | 43 | 1014.0 |
| 20260507232351 | 70 | 262 | 0.0 | 0.0 | 0.00 | 0.00 | 0.00 | 44 | 1013.9 |
| 20260507231849 | 69 | 280 | 0.0 | 1.0 | 0.00 | 0.00 | 0.00 | 44 | 1014.0 |
| 20260507231345 | 69 | 277 | 2.0 | 3.0 | 0.00 | 0.00 | 0.00 | 42 | 1014.0 |
| 20260507230841 | 70 | 259 | 3.0 | 4.0 | 0.00 | 0.00 | 0.00 | 43 | 1014.0 |
| 20260507230339 | 71 | 281 | 1.0 | 1.0 | 0.00 | 0.00 | 0.00 | 43 | 1014.1 |
| 20260507225838 | 70 | 254 | 1.0 | 1.0 | 0.00 | 0.00 | 0.00 | 44 | 1014.3 |
| 20260507225335 | 70 | 236 | 2.0 | 3.0 | 0.00 | 0.00 | 0.00 | 43 | 1014.2 |
| 20260507224831 | 70 | 272 | 2.0 | 3.0 | 0.00 | 0.00 | 0.00 | 42 | 1014.2 |
| 20260507224328 | 69 | 267 | 1.0 | 1.0 | 0.00 | 0.00 | 0.00 | 48 | 1014.2 |
| 20260507223824 | 69 | 321 | 2.0 | 3.0 | 0.00 | 0.00 | 0.00 | 43 | 1014.3 |
| 20260507223320 | 69 | 285 | 2.0 | 3.0 | 0.00 | 0.00 | 0.00 | 42 | 1014.3 |
| 20260507222818 | 69 | 289 | 2.0 | 3.0 | 0.00 | 0.00 | 0.00 | 43 | 1014.2 |
| 20260507222314 | 70 | 312 | 3.0 | 5.0 | 0.00 | 0.00 | 0.00 | 43 | 1014.4 |
| 20260507221811 | 69 | 305 | 3.0 | 4.0 | 0.00 | 0.00 | 0.00 | 44 | 1014.3 |
| 20260507221307 | 69 | 261 | 2.0 | 3.0 | 0.00 | 0.00 | 0.00 | 43 | 1014.7 |
| 20260507220803 | 70 | 280 | 4.0 | 5.0 | 0.00 | 0.00 | 0.00 | 42 | 1014.6 |
| 20260507220302 | 70 | 218 | 2.0 | 3.0 | 0.00 | 0.00 | 0.00 | 47 | 1014.4 |
| 20260507215758 | 70 | 213 | 2.0 | 3.0 | 0.00 | 0.00 | 0.00 | 42 | 1014.8 |
| 20260507215255 | 70 | 289 | 2.0 | 3.0 | 0.00 | 0.00 | 0.00 | 42 | 1014.9 |
| 20260507214752 | 71 | 174 | 4.0 | 5.0 | 0.00 | 0.00 | 0.00 | 42 | 1014.8 |
| 20260507214249 | 71 | 244 | 2.0 | 3.0 | 0.00 | 0.00 | 0.00 | 43 | 1014.9 |
| 20260507213744 | 70 | 276 | 3.0 | 4.0 | 0.00 | 0.00 | 0.00 | 44 | 1014.8 |
| 20260507213242 | 70 | 223 | 5.0 | 7.0 | 0.00 | 0.00 | 0.00 | 41 | 1015.0 |
| 20260507212738 | 70 | 257 | 2.0 | 3.0 | 0.00 | 0.00 | 0.00 | 47 | 1014.9 |
| 20260507212235 | 71 | 272 | 2.0 | 3.0 | 0.00 | 0.00 | 0.00 | 44 | 1014.9 |
| 20260507211732 | 70 | 268 | 4.0 | 4.0 | 0.00 | 0.00 | 0.00 | 41 | 1014.9 |
| 20260507211228 | 70 | 262 | 1.0 | 1.0 | 0.00 | 0.00 | 0.00 | 48 | 1015.0 |
| 20260507210725 | 69 | 311 | 2.0 | 4.0 | 0.00 | 0.00 | 0.00 | 43 | 1015.1 |
| 20260507210222 | 69 | 157 | 4.0 | 5.0 | 0.00 | 0.00 | 0.00 | 42 | 1015.2 |
| 20260507205718 | 68 | 321 | 4.0 | 5.0 | 0.00 | 0.00 | 0.00 | 43 | 1015.3 |
| 20260507205215 | 68 | 311 | 2.0 | 3.0 | 0.00 | 0.00 | 0.00 | 43 | 1015.4 |
| 20260507204711 | 68 | 277 | 1.0 | 1.0 | 0.00 | 0.00 | 0.00 | 47 | 1015.5 |
| 20260507204209 | 70 | 272 | 7.0 | 10.0 | 0.00 | 0.00 | 0.00 | 41 | 1015.7 |
| 20260507203707 | 70 | 275 | 1.0 | 1.0 | 0.00 | 0.00 | 0.00 | 44 | 1015.6 |
| 20260507203204 | 69 | 244 | 2.0 | 4.0 | 0.00 | 0.00 | 0.00 | 42 | 1015.7 |
| 20260507202659 | 68 | 146 | 2.0 | 3.0 | 0.00 | 0.00 | 0.00 | 42 | 1015.7 |
| 20260507202156 | 69 | 232 | 0.0 | 1.0 | 0.00 | 0.00 | 0.00 | 47 | 1015.8 |
| 20260507201651 | 68 | 77 | 2.0 | 4.0 | 0.00 | 0.00 | 0.00 | 50 | 1015.9 |
| 20260507201148 | 66 | 210 | 4.0 | 5.0 | 0.00 | 0.00 | 0.00 | 45 | 1016.1 |
| 20260507200644 | 68 | 171 | 6.0 | 7.0 | 0.00 | 0.00 | 0.00 | 41 | 1016.1 |
| 20260507200140 | 69 | 93 | 2.0 | 3.0 | 0.00 | 0.00 | 0.00 | 45 | 1016.5 |
| 20260507195637 | 68 | 16 | 3.0 | 4.0 | 0.00 | 0.00 | 0.00 | 44 | 1016.1 |
| 20260507195134 | 67 | 291 | 1.0 | 1.0 | 0.00 | 0.00 | 0.00 | 52 | 1016.4 |
| 20260507194631 | 69 | 220 | 5.0 | 7.0 | 0.00 | 0.00 | 0.00 | 44 | 1016.4 |
| 20260507194126 | 67 | 252 | 1.0 | 1.0 | 0.00 | 0.00 | 0.00 | 49 | 1016.4 |
| 20260507193624 | 68 | 230 | 5.0 | 7.0 | 0.00 | 0.00 | 0.00 | 42 | 1016.6 |
| 20260507193121 | 67 | 295 | 1.0 | 3.0 | 0.00 | 0.00 | 0.00 | 47 | 1016.5 |
| 20260507192617 | 67 | 225 | 4.0 | 5.0 | 0.00 | 0.00 | 0.00 | 43 | 1016.5 |
| 20260507192114 | 67 | 287 | 3.0 | 4.0 | 0.00 | 0.00 | 0.00 | 49 | 1016.6 |
| 20260507191610 | 68 | 285 | 1.0 | 1.0 | 0.00 | 0.00 | 0.00 | 48 | 1016.5 |
| 20260507191107 | 68 | 241 | 4.0 | 4.0 | 0.00 | 0.00 | 0.00 | 47 | 1016.5 |
| 20260507190604 | 69 | 261 | 2.0 | 3.0 | 0.00 | 0.00 | 0.00 | 45 | 1016.7 |
| 20260507185601 | 68 | 346 | 2.0 | 3.0 | 0.00 | 0.00 | 0.00 | 46 | 1016.9 |
| 20260507185057 | 67 | 214 | 2.0 | 3.0 | 0.00 | 0.00 | 0.00 | 46 | 1016.9 |
| 20260507184555 | 67 | 226 | 1.0 | 3.0 | 0.00 | 0.00 | 0.00 | 46 | 1017.2 |
| 20260507184053 | 66 | 237 | 1.0 | 1.0 | 0.00 | 0.00 | 0.00 | 48 | 1017.1 |
| 20260507183548 | 66 | 234 | 2.0 | 3.0 | 0.00 | 0.00 | 0.00 | 39 | 1017.0 |
| 20260507183046 | 66 | 185 | 2.0 | 4.0 | 0.00 | 0.00 | 0.00 | 44 | 1017.1 |
| 20260507182542 | 68 | 211 | 5.0 | 8.0 | 0.00 | 0.00 | 0.00 | 41 | 1017.0 |
| 20260507182038 | 67 | 220 | 0.0 | 1.0 | 0.00 | 0.00 | 0.00 | 49 | 1017.1 |
| 20260507181535 | 66 | 256 | 1.0 | 1.0 | 0.00 | 0.00 | 0.00 | 46 | 1017.2 |
| 20260507181031 | 65 | 315 | 3.0 | 4.0 | 0.00 | 0.00 | 0.00 | 47 | 1017.3 |
| 20260507180527 | 66 | 272 | 2.0 | 3.0 | 0.00 | 0.00 | 0.00 | 46 | 1017.2 |
| 20260507180025 | 65 | 212 | 2.0 | 3.0 | 0.00 | 0.00 | 0.00 | 45 | 1017.5 |
| 20260507175521 | 64 | 236 | 4.0 | 7.0 | 0.00 | 0.00 | 0.00 | 47 | 1017.3 |
| 20260507175019 | 66 | 230 | 7.0 | 8.0 | 0.00 | 0.00 | 0.00 | 42 | 1017.4 |
| 20260507174515 | 65 | 244 | 2.0 | 3.0 | 0.00 | 0.00 | 0.00 | 48 | 1017.6 |
| 20260507174013 | 66 | 306 | 2.0 | 4.0 | 0.00 | 0.00 | 0.00 | 45 | 1017.8 |
| 20260507173510 | 65 | 206 | 3.0 | 4.0 | 0.00 | 0.00 | 0.00 | 49 | 1017.6 |
| 20260507173007 | 65 | 202 | 3.0 | 4.0 | 0.00 | 0.00 | 0.00 | 41 | 1017.9 |
| 20260507172503 | 65 | 265 | 0.0 | 3.0 | 0.00 | 0.00 | 0.00 | 43 | 1018.0 |
| 20260507172000 | 65 | 205 | 1.0 | 3.0 | 0.00 | 0.00 | 0.00 | 41 | 1018.1 |
| 20260507171455 | 65 | 274 | 2.0 | 3.0 | 0.00 | 0.00 | 0.00 | 43 | 1018.1 |
| 20260507170953 | 65 | 329 | 3.0 | 4.0 | 0.00 | 0.00 | 0.00 | 41 | 1018.5 |
| 20260507170449 | 65 | 249 | 2.0 | 3.0 | 0.00 | 0.00 | 0.00 | 47 | 1018.4 |
| 20260507165946 | 64 | 276 | 1.0 | 1.0 | 0.00 | 0.00 | 0.00 | 46 | 1018.5 |
| 20260507165442 | 64 | 276 | 3.0 | 4.0 | 0.00 | 0.00 | 0.00 | 45 | 1018.6 |
| 20260507164938 | 65 | 289 | 2.0 | 3.0 | 0.00 | 0.00 | 0.00 | 47 | 1018.7 |
| 20260507164435 | 65 | 221 | 4.0 | 5.0 | 0.00 | 0.00 | 0.00 | 45 | 1018.7 |
| 20260507163932 | 64 | 272 | 2.0 | 3.0 | 0.00 | 0.00 | 0.00 | 46 | 1018.5 |
| 20260507163429 | 64 | 291 | 0.0 | 1.0 | 0.00 | 0.00 | 0.00 | 48 | 1018.6 |
| 20260507162926 | 64 | 261 | 2.0 | 3.0 | 0.00 | 0.00 | 0.00 | 50 | 1018.7 |
| 20260507162421 | 64 | 285 | 3.0 | 4.0 | 0.00 | 0.00 | 0.00 | 44 | 1018.8 |
| 20260507161919 | 64 | 342 | 1.0 | 1.0 | 0.00 | 0.00 | 0.00 | 48 | 1018.6 |
| 20260507161414 | 63 | 201 | 1.0 | 1.0 | 0.00 | 0.00 | 0.00 | 48 | 1018.7 |
| 20260507160911 | 64 | 292 | 2.0 | 4.0 | 0.00 | 0.00 | 0.00 | 46 | 1018.8 |
| 20260507160408 | 63 | 295 | 2.0 | 3.0 | 0.00 | 0.00 | 0.00 | 46 | 1018.7 |
| 20260507155904 | 62 | 289 | 4.0 | 4.0 | 0.00 | 0.00 | 0.00 | 43 | 1019.0 |
| 20260507155359 | 63 | 224 | 1.0 | 1.0 | 0.00 | 0.00 | 0.00 | 44 | 1018.9 |
| 20260507154857 | 61 | 265 | 1.0 | 3.0 | 0.00 | 0.00 | 0.00 | 49 | 1019.0 |
| 20260507154354 | 62 | 243 | 5.0 | 5.0 | 0.00 | 0.00 | 0.00 | 44 | 1019.0 |
| 20260507153851 | 61 | 194 | 4.0 | 4.0 | 0.00 | 0.00 | 0.00 | 50 | 1019.0 |
| 20260507153347 | 61 | 182 | 2.0 | 3.0 | 0.00 | 0.00 | 0.00 | 50 | 1019.2 |
| 20260507152844 | 61 | 273 | 2.0 | 3.0 | 0.00 | 0.00 | 0.00 | 46 | 1019.3 |
| 20260507152340 | 60 | 155 | 6.0 | 8.0 | 0.00 | 0.00 | 0.00 | 43 | 1019.4 |
| 20260507151836 | 61 | 202 | 4.0 | 4.0 | 0.00 | 0.00 | 0.00 | 41 | 1019.2 |
| 20260507151332 | 62 | 248 | 2.0 | 3.0 | 0.00 | 0.00 | 0.00 | 48 | 1019.3 |
| 20260507150830 | 61 | 174 | 1.0 | 1.0 | 0.00 | 0.00 | 0.00 | 48 | 1019.3 |
| 20260507150326 | 60 | 183 | 3.0 | 4.0 | 0.00 | 0.00 | 0.00 | 53 | 1019.2 |
| 20260507145822 | 60 | 169 | 2.0 | 4.0 | 0.00 | 0.00 | 0.00 | 52 | 1019.2 |
| 20260507145319 | 59 | 179 | 4.0 | 5.0 | 0.00 | 0.00 | 0.00 | 50 | 1019.4 |
| 20260507144816 | 58 | 202 | 3.0 | 4.0 | 0.00 | 0.00 | 0.00 | 50 | 1019.4 |
| 20260507144313 | 58 | 220 | 2.0 | 4.0 | 0.00 | 0.00 | 0.00 | 53 | 1019.5 |
| 20260507143810 | 57 | 211 | 4.0 | 5.0 | 0.00 | 0.00 | 0.00 | 55 | 1019.2 |
| 20260507143308 | 57 | 113 | 2.0 | 3.0 | 0.00 | 0.00 | 0.00 | 56 | 1019.2 |
| 20260507142803 | 56 | 205 | 3.0 | 4.0 | 0.00 | 0.00 | 0.00 | 55 | 1019.2 |
| 20260507142300 | 56 | 139 | 2.0 | 3.0 | 0.00 | 0.00 | 0.00 | 55 | 1019.0 |
| 20260507141756 | 57 | 176 | 2.0 | 3.0 | 0.00 | 0.00 | 0.00 | 62 | 1019.5 |
| 20260507141254 | 56 | 149 | 2.0 | 3.0 | 0.00 | 0.00 | 0.00 | 58 | 1019.0 |
| 20260507140749 | 56 | 240 | 5.0 | 5.0 | 0.00 | 0.00 | 0.00 | 61 | 1019.4 |
| 20260507140247 | 54 | 164 | 1.0 | 1.0 | 0.00 | 0.00 | 0.00 | 68 | 1019.5 |
| 20260507135744 | 54 | 193 | 3.0 | 4.0 | 0.00 | 0.00 | 0.00 | 65 | 1019.5 |
| 20260507135241 | 54 | 216 | 4.0 | 4.0 | 0.00 | 0.00 | 0.00 | 66 | 1019.3 |
| 20260507134737 | 54 | 222 | 4.0 | 4.0 | 0.00 | 0.00 | 0.00 | 67 | 1019.4 |
| 20260507134234 | 54 | 173 | 2.0 | 3.0 | 0.00 | 0.00 | 0.00 | 68 | 1019.5 |
| 20260507133730 | 53 | 257 | 0.0 | 1.0 | 0.00 | 0.00 | 0.00 | 75 | 1019.5 |
| 20260507133227 | 51 | 167 | 0.0 | 1.0 | 0.00 | 0.00 | 0.00 | 86 | 1019.2 |
| 20260507132724 | 50 | 165 | 0.0 | 1.0 | 0.00 | 0.00 | 0.00 | 97 | 1019.4 |
| 20260507132221 | 48 | 350 | 1.0 | 1.0 | 0.00 | 0.00 | 0.00 | 99 | 1019.3 |
| 20260507131718 | 48 | 355 | 1.0 | 1.0 | 0.00 | 0.00 | 0.00 | 99 | 1019.4 |
| 20260507131215 | 47 | 293 | 0.0 | 0.0 | 0.00 | 0.00 | 0.00 | 99 | 1019.4 |
| 20260507130712 | 46 | 337 | 1.0 | 1.0 | 0.00 | 0.00 | 0.00 | 99 | 1019.4 |
| 20260507130210 | 46 | 204 | 0.0 | 0.0 | 0.00 | 0.00 | 0.00 | 99 | 1019.3 |
| 20260507125708 | 45 | 204 | 0.0 | 0.0 | 0.00 | 0.00 | 0.00 | 99 | 1019.4 |
| 20260507125205 | 43 | 322 | 0.0 | 1.0 | 0.00 | 0.00 | 0.00 | 99 | 1019.4 |
| 20260507124701 | 43 | 323 | 0.0 | 0.0 | 0.00 | 0.00 | 0.00 | 99 | 1019.4 |
| 20260507124159 | 42 | 325 | 1.0 | 1.0 | 0.00 | 0.00 | 0.00 | 99 | 1019.3 |
| 20260507123657 | 44 | 273 | 0.0 | 0.0 | 0.00 | 0.00 | 0.00 | 99 | 1019.0 |
| 20260507123154 | 43 | 273 | 0.0 | 0.0 | 0.00 | 0.00 | 0.00 | 99 | 1019.2 |
| 20260507122649 | 41 | 273 | 0.0 | 0.0 | 0.00 | 0.00 | 0.00 | 99 | 1019.2 |
| 20260507122145 | 39 | 273 | 0.0 | 0.0 | 0.00 | 0.00 | 0.00 | 99 | 1019.2 |
| 20260507121641 | 39 | 297 | 0.0 | 0.0 | 0.00 | 0.00 | 0.00 | 99 | 1019.0 |
| 20260507121137 | 39 | 298 | 0.0 | 0.0 | 0.00 | 0.00 | 0.00 | 99 | 1019.2 |
| 20260507120634 | 38 | 241 | 0.0 | 0.0 | 0.00 | 0.00 | 0.00 | 99 | 1018.8 |
| 20260507120130 | 38 | 241 | 0.0 | 0.0 | 0.00 | 0.00 | 0.00 | 99 | 1018.9 |
| 20260507115627 | 38 | 241 | 0.0 | 0.0 | 0.00 | 0.00 | 0.00 | 99 | 1018.7 |
| 20260507115122 | 38 | 241 | 0.0 | 0.0 | 0.00 | 0.00 | 0.00 | 99 | 1018.8 |
| 20260507114618 | 38 | 240 | 0.0 | 0.0 | 0.00 | 0.00 | 0.00 | 99 | 1018.7 |
| 20260507114116 | 38 | 241 | 0.0 | 0.0 | 0.00 | 0.00 | 0.00 | 99 | 1018.8 |
| 20260507113613 | 38 | 279 | 0.0 | 0.0 | 0.00 | 0.00 | 0.00 | 99 | 1018.8 |
| 20260507113110 | 39 | 279 | 0.0 | 0.0 | 0.00 | 0.00 | 0.00 | 99 | 1018.9 |
| 20260507112608 | 38 | 279 | 0.0 | 0.0 | 0.00 | 0.00 | 0.00 | 99 | 1018.8 |
| 20260507112104 | 38 | 275 | 0.0 | 0.0 | 0.00 | 0.00 | 0.00 | 99 | 1019.0 |
| 20260507111602 | 38 | 275 | 0.0 | 0.0 | 0.00 | 0.00 | 0.00 | 99 | 1019.0 |
| 20260507111058 | 39 | 275 | 0.0 | 0.0 | 0.00 | 0.00 | 0.00 | 99 | 1018.8 |
| 20260507110554 | 39 | 275 | 0.0 | 0.0 | 0.00 | 0.00 | 0.00 | 99 | 1018.8 |
| 20260507110051 | 39 | 275 | 0.0 | 0.0 | 0.00 | 0.00 | 0.00 | 99 | 1018.6 |
| 20260507105548 | 39 | 275 | 0.0 | 0.0 | 0.00 | 0.00 | 0.00 | 99 | 1018.5 |
| 20260507105044 | 39 | 276 | 0.0 | 0.0 | 0.00 | 0.00 | 0.00 | 99 | 1018.6 |
| 20260507104542 | 39 | 276 | 0.0 | 0.0 | 0.00 | 0.00 | 0.00 | 99 | 1018.4 |
| 20260507104038 | 39 | 276 | 0.0 | 0.0 | 0.00 | 0.00 | 0.00 | 99 | 1018.3 |
| 20260507103534 | 39 | 277 | 0.0 | 1.0 | 0.00 | 0.00 | 0.00 | 99 | 1018.4 |
| 20260507103031 | 39 | 275 | 0.0 | 0.0 | 0.00 | 0.00 | 0.00 | 99 | 1018.1 |
| 20260507102527 | 40 | 275 | 0.0 | 0.0 | 0.00 | 0.00 | 0.00 | 99 | 1018.2 |
| 20260507102024 | 40 | 276 | 0.0 | 0.0 | 0.00 | 0.00 | 0.00 | 99 | 1018.3 |
| 20260507101519 | 40 | 277 | 0.0 | 0.0 | 0.00 | 0.00 | 0.00 | 99 | 1018.3 |
| 20260507101016 | 40 | 278 | 0.0 | 0.0 | 0.00 | 0.00 | 0.00 | 99 | 1018.3 |
| 20260507100513 | 39 | 276 | 0.0 | 1.0 | 0.00 | 0.00 | 0.00 | 99 | 1018.4 |
| 20260507100011 | 39 | 264 | 0.0 | 0.0 | 0.00 | 0.00 | 0.00 | 99 | 1018.3 |
| 20260507095509 | 39 | 275 | 0.0 | 0.0 | 0.00 | 0.00 | 0.00 | 99 | 1018.2 |
| 20260507095005 | 39 | 278 | 0.0 | 0.0 | 0.00 | 0.00 | 0.00 | 99 | 1018.4 |
| 20260507094501 | 39 | 285 | 0.0 | 0.0 | 0.00 | 0.00 | 0.00 | 98 | 1018.2 |
| 20260507093959 | 39 | 286 | 0.0 | 0.0 | 0.00 | 0.00 | 0.00 | 98 | 1018.3 |
| 20260507093456 | 38 | 254 | 0.0 | 0.0 | 0.00 | 0.00 | 0.00 | 99 | 1018.4 |
| 20260507092954 | 38 | 250 | 0.0 | 0.0 | 0.00 | 0.00 | 0.00 | 98 | 1018.6 |
| 20260507092450 | 38 | 255 | 0.0 | 0.0 | 0.00 | 0.00 | 0.00 | 98 | 1018.6 |
| 20260507091947 | 38 | 274 | 0.0 | 0.0 | 0.00 | 0.00 | 0.00 | 98 | 1018.8 |
| 20260507091444 | 38 | 279 | 0.0 | 0.0 | 0.00 | 0.00 | 0.00 | 98 | 1018.8 |
| 20260507090940 | 38 | 292 | 1.0 | 1.0 | 0.00 | 0.00 | 0.00 | 98 | 1018.6 |
| 20260507090436 | 38 | 244 | 0.0 | 0.0 | 0.00 | 0.00 | 0.00 | 98 | 1018.4 |
| 20260507085932 | 37 | 244 | 0.0 | 0.0 | 0.00 | 0.00 | 0.00 | 98 | 1018.6 |
| 20260507085430 | 37 | 245 | 0.0 | 0.0 | 0.00 | 0.00 | 0.00 | 98 | 1018.7 |
| 20260507084927 | 38 | 245 | 0.0 | 0.0 | 0.00 | 0.00 | 0.00 | 98 | 1018.8 |
| 20260507084424 | 38 | 244 | 0.0 | 0.0 | 0.00 | 0.00 | 0.00 | 98 | 1018.9 |
| 20260507083921 | 38 | 245 | 0.0 | 0.0 | 0.00 | 0.00 | 0.00 | 98 | 1018.7 |
| 20260507083417 | 38 | 243 | 0.0 | 0.0 | 0.00 | 0.00 | 0.00 | 98 | 1018.7 |
| 20260507082913 | 38 | 270 | 0.0 | 0.0 | 0.00 | 0.00 | 0.00 | 98 | 1018.6 |
| 20260507082409 | 38 | 275 | 0.0 | 0.0 | 0.00 | 0.00 | 0.00 | 98 | 1018.6 |
| 20260507081907 | 38 | 269 | 0.0 | 0.0 | 0.00 | 0.00 | 0.00 | 98 | 1018.6 |
| 20260507081402 | 38 | 278 | 0.0 | 0.0 | 0.00 | 0.00 | 0.00 | 98 | 1018.4 |
| 20260507080859 | 38 | 263 | 0.0 | 0.0 | 0.00 | 0.00 | 0.00 | 98 | 1018.6 |
| 20260507080355 | 39 | 258 | 0.0 | 0.0 | 0.00 | 0.00 | 0.00 | 98 | 1018.7 |
| 20260507075851 | 39 | 247 | 0.0 | 0.0 | 0.00 | 0.00 | 0.00 | 98 | 1018.7 |
| 20260507075347 | 39 | 277 | 0.0 | 0.0 | 0.00 | 0.00 | 0.00 | 98 | 1018.6 |
| 20260507074844 | 39 | 257 | 0.0 | 0.0 | 0.00 | 0.00 | 0.00 | 98 | 1018.2 |
| 20260507074341 | 39 | 257 | 0.0 | 0.0 | 0.00 | 0.00 | 0.00 | 98 | 1018.4 |
| 20260507073838 | 39 | 257 | 0.0 | 0.0 | 0.00 | 0.00 | 0.00 | 98 | 1018.2 |
| 20260507073335 | 39 | 256 | 0.0 | 0.0 | 0.00 | 0.00 | 0.00 | 98 | 1018.4 |
| 20260507072832 | 39 | 256 | 0.0 | 0.0 | 0.00 | 0.00 | 0.00 | 98 | 1018.5 |
| 20260507072329 | 39 | 280 | 0.0 | 0.0 | 0.00 | 0.00 | 0.00 | 98 | 1018.5 |
| 20260507071827 | 39 | 292 | 0.0 | 0.0 | 0.00 | 0.00 | 0.00 | 97 | 1018.6 |
| 20260507071324 | 39 | 292 | 0.0 | 0.0 | 0.00 | 0.00 | 0.00 | 97 | 1018.5 |
| 20260507070820 | 40 | 293 | 0.0 | 0.0 | 0.00 | 0.00 | 0.00 | 97 | 1018.5 |
| 20260507070318 | 40 | 297 | 1.0 | 1.0 | 0.00 | 0.00 | 0.00 | 97 | 1018.6 |
| 20260507065814 | 40 | 199 | 0.0 | 0.0 | 0.00 | 0.00 | 0.00 | 97 | 1018.5 |
| 20260507065310 | 40 | 199 | 0.0 | 0.0 | 0.00 | 0.00 | 0.00 | 97 | 1018.6 |
| 20260507064808 | 40 | 199 | 0.0 | 0.0 | 0.00 | 0.00 | 0.00 | 97 | 1018.7 |
| 20260507064307 | 40 | 199 | 0.0 | 0.0 | 0.00 | 0.00 | 0.00 | 97 | 1018.7 |
| 20260507063804 | 40 | 199 | 0.0 | 0.0 | 0.00 | 0.00 | 0.00 | 97 | 1018.9 |
| 20260507063301 | 41 | 199 | 0.0 | 0.0 | 0.00 | 0.00 | 0.00 | 97 | 1019.2 |
| 20260507062757 | 40 | 199 | 0.0 | 0.0 | 0.00 | 0.00 | 0.00 | 97 | 1018.7 |
| 20260507062255 | 40 | 199 | 0.0 | 0.0 | 0.00 | 0.00 | 0.00 | 97 | 1018.7 |
| 20260507061752 | 41 | 199 | 0.0 | 0.0 | 0.00 | 0.00 | 0.00 | 97 | 1018.7 |
| 20260507061250 | 41 | 199 | 0.0 | 0.0 | 0.00 | 0.00 | 0.00 | 97 | 1018.6 |
| 20260507060748 | 41 | 199 | 0.0 | 0.0 | 0.00 | 0.00 | 0.00 | 97 | 1018.7 |
| 20260507060244 | 41 | 199 | 0.0 | 0.0 | 0.00 | 0.00 | 0.00 | 97 | 1018.7 |
| 20260507055741 | 41 | 199 | 0.0 | 0.0 | 0.00 | 0.00 | 0.00 | 97 | 1018.8 |
| 20260507055236 | 41 | 199 | 0.0 | 0.0 | 0.00 | 0.00 | 0.00 | 97 | 1018.6 |
| 20260507054733 | 41 | 199 | 0.0 | 0.0 | 0.00 | 0.00 | 0.00 | 97 | 1018.5 |